Regional Weather Roundup
Issued by NWS Jackson, KY

Home | Current Version | Previous Version | Graphics & Text | Print | Product List | Glossary On
Versions: 1 2 3 4 5 6 7 8 9 10 11 12 13 14 15 16 17 18 19 20 21 22 23 24 25 26 27 28 29 30 31 32 33 34 35 36 37 38 39 40 41 42 43 44 45 46 47 48 49 50
000
ASUS43 KJKL 012210
RWRJKL

EAST KENTUCKY HOURLY WEATHER ROUNDUP
NATIONAL WEATHER SERVICE JACKSON KY
600 PM EDT SAT AUG 01 2015

NOTE: "FAIR" INDICATES FEW OR NO CLOUDS BELOW 12,000 FEET WITH
NO SIGNIFICANT WEATHER AND/OR OBSTRUCTIONS TO VISIBILITY.

* THESE REPORTS ARE NOT UNDER NWS QUALITY CONTROL AND MAY NOT
  REPORT WEATHER SUCH AS PRECIPITATION AND FOG.

KYZ079-080-083-085-087-088-110-112-115-119-120-012300
...EASTERN KENTUCKY...

CITY           SKY/WX    TMP DP  RH WIND       PRES   REMARKS
JACKSON        SUNNY     83  55  38 CALM      29.99S
LONDON         MOSUNNY   86  57  37 NW12      29.99S
SOMERSET*      MOSUNNY   82  55  39 NW8       29.99S
MONTICELLO*    SUNNY     87  66  49 W7        30.01F
WILLIAMSBURG*  SUNNY     84  61  45 NW7       29.99
MIDDLESBORO*   MOSUNNY   85  63  48 N6        29.99S
BLACK MTN*       N/A    N/A N/A N/A CALM        N/A
PIKEVILLE APT* SUNNY     82  59  44 NW7       29.99S
BIG SANDY*     CLEAR     83  60  45 N3        29.99S
MOREHEAD APT*  MOCLDY    82  57  42 NW6       30.00S
$$

KYZ035-036-041-042-044-050-067-078-099-012300
...CENTRAL KENTUCKY...

CITY           SKY/WX    TMP DP  RH WIND       PRES   REMARKS
MT STERLING*   MOSUNNY   82  59  44 N6        30.00S
FLEMING/MASON* MOSUNNY   81  57  44 N5        29.99F
DANVILLE*      SUNNY     82  55  39 N8        30.00S
RICHMOND*      SUNNY     84  54  34 NW6       29.98S
LEXINGTON      MOSUNNY   82  55  39 NW8       29.99S
FRANKFORT      MOSUNNY   84  55  36 NW3       29.98S
$$

KYZ091>093-OHZ055-061-077-WVZ005-015-034-035-042-012300
...SOUTHERN OHIO/WEST VIRGINIA...

CITY           SKY/WX    TMP DP  RH WIND       PRES   REMARKS
COVINGTON      PTSUNNY   81  56  42 NW8       29.98F
COLUMBUS       MOSUNNY   81  54  39 NW8       29.94S
DAYTON         MOSUNNY   81  55  40 NW10      29.98F
WILMINGTON     MOSUNNY   80  53  39 NW8       29.98S
HUNTINGTON     MOSUNNY   84  57  39 NW7       29.97R
CHARLESTON     MOSUNNY   83  54  36 NW12      29.96F
PINEVILLE*     MOSUNNY   79  62  55 MISG      30.05S
BECKLEY        SUNNY     77  52  41 NW10      30.04S
BLUEFIELD      SUNNY     79  52  38 NW10      30.06F
$$

VAZ002-007-008-TNZ017-027-036-066-071-012300
...SOUTHWEST VIRGINIA/EAST TENNESSEE...

CITY           SKY/WX    TMP DP  RH WIND       PRES   REMARKS
WISE*          PTSUNNY   82  52  34 NW8       30.06F
ABINGDON*      MOSUNNY   83  54  36 NW7       30.02S
BRISTOL        MOSUNNY   87  55  33 NW9G18    29.98F
KNOXVILLE      MOSUNNY   87  58  37 E5        29.96F
OAK RIDGE      SUNNY     90  58  33 NW5       29.98S
CROSSVILLE     SUNNY     82  58  43 N6        30.04S
NASHVILLE      MOSUNNY   92  64  39 N13       29.97F HX  93
$$

...KEY TO REMARKS...
VSB - VISIBILITY IN MILES
WCI - WIND CHILL INDEX
HX  - HEAT INDEX

$$



USA.gov is the U.S. government's official web portal to all federal, state and local government web resources and services.